Regional Weather Roundup
Issued by NWS

Home | Current Version | Previous Version | Text Only | Print | Product List | Glossary Off
Versions: 1 2 3 4 5 6 7 8 9 10 11 12 13 14 15 16 17 18 19 20 21 22 23 24 25 26 27 28 29 30 31 32 33 34 35 36 37 38 39 40 41 42 43 44 45 46 47 48 49 50

000
ASUS43 KDMX 241507
RWRIA

WEATHER ROUNDUP FOR IOWA
NATIONAL WEATHER SERVICE DES MOINES IA
1000 AM CDT SUN MAY 24 2015

NOTE: "FAIR" INDICATES FEW OR NO CLOUDS BELOW 12,000 FEET WITH NO
SIGNIFICANT WEATHER AND/OR OBSTRUCTIONS TO VISIBILITY.

* - THESE STATIONS ARE NOT NWS STATIONS...THUS NOT UNDER NWS
QUALITY CONTROL.  THEY ALSO DO NOT REPORT WEATHER SUCH
AS PRECIPITATION OR FOG.

IAZ001>003-012>014-020>022-031>034-043>046-241600-
   NORTHWEST IOWA

CITY           SKY/WX    TMP DP  RH WIND       PRES   REMARKS
CARROLL *      CLOUDY    59  59 100 E13       29.87F FOG
CHEROKEE *     CLOUDY    61  59  94 E12       29.89F FOG
DENISON *      PTSUNNY   61  61 100 E7        29.85F FOG
LE MARS *      CLOUDY    61  59  94 E10G16    29.90F
ORANGE CITY *  CLOUDY    59  57  94 E8        29.90F
SHELDON *      CLOUDY    61  59  94 E18       29.90F
SIOUX CITY     LGT RAIN  61  58  90 E10       29.87F FOG
SPENCER        LGT RAIN  60  57  89 E15       29.93F FOG
STORM LAKE *   LGT RAIN  59  59 100 E14       29.90F
$$

IAZ055>058-069>071-079>083-090>094-241600-
   SOUTHWEST IOWA

CITY           SKY/WX    TMP DP  RH WIND       PRES   REMARKS
ATLANTIC *     CLOUDY    61  61 100 SE8       29.85F FOG
AUDUBON *      LGT RAIN  61  57  88 SE8       29.87F
CLARINDA *     CLOUDY    63  63 100 SE9       29.87S
COUNCIL BLFS * CLOUDY    61  61 100 SE8       29.84F FOG
CRESTON *      CLOUDY    61  61 100 SE16      29.87F
HARLAN  *      CLOUDY    61  61 100 SE7       29.89F FOG
LAMONI         CLOUDY    63  60  90 SE13      29.88F FOG
RED OAK *      CLOUDY    63  63 100 S7        29.85F
SHENANDOAH *   CLOUDY    63  63 100 SE12G17   29.84F
$$

IAZ047>049-059>061-072>074-084-241600-
   CENTRAL IOWA

CITY           SKY/WX    TMP DP  RH WIND       PRES   REMARKS
AMES           LGT RAIN  61  59  93 SE15G23   29.91F FOG
ANKENY *       CLOUDY    61  61 100 SE13G20   29.91F FOG
CHARITON *     CLOUDY    61  59  94 SE12G24   29.91F
DES MOINES     CLOUDY    62  59  90 SE14      29.90F FOG
GRINNELL*      HVY RAIN  59  57  94 E15G22    29.96F
KNOXVILLE *    CLOUDY    61  59  94 SE14      29.91F
MARSHALLTOWN   LGT RAIN  59  57  93 E18       29.95F
PELLA *        CLOUDY    61  61 100 SE15      29.94F FOG
PERRY *        LGT RAIN  61  61 100 SE14      29.89F
$$

IAZ004>006-015-016-023>025-035-036-241600-
   NORTH CENTRAL IOWA

CITY           SKY/WX    TMP DP  RH WIND       PRES   REMARKS
ALGONA *       LGT RAIN  59  59 100 E14G21    29.94F
CLARION *      CLOUDY    59  59 100 E22G28    29.93F FOG
ESTHERVILLE    LGT RAIN  58  56  93 E20G25    29.95F FOG
FORT DODGE *   CLOUDY    59  55  88 E16       29.92F
MASON CITY     LGT RAIN  59  57  93 E16       30.00F FOG
FOREST CITY *  LGT RAIN  57  57 100 E13G21    29.99F
IOWA FALLS *   LGT RAIN  59  57  94 E21       29.96F
$$

IAZ007>011-017>019-026>030-037>042-050>054-066-241600-
   NORTHEAST IOWA

CITY           SKY/WX    TMP DP  RH WIND       PRES   REMARKS
CEDAR RAPIDS   HVY RAIN  59  59 100 E15       30.00F FOG
CHARLES CITY * PTSUNNY   59  59 100 SE15      30.02F
CLINTON *      CLOUDY    61  55  82 E12       30.09F
DECORAH *      CLOUDY    57  57 100 SE10G17   30.05F
DUBUQUE        LGT RAIN  58  55  90 E12       30.10F FOG
MONTICELLO *   LGT RAIN  59  59 100 E8        30.06F
OELWEIN *      CLOUDY    59  57  94 SE17G25   30.04F FOG
WATERLOO       RAIN      58  56  93 SE13      30.01F FOG
$$

IAZ064-065-067-068-078-241600-
   EAST CENTRAL IOWA

CITY           SKY/WX    TMP DP  RH WIND       PRES   REMARKS
DAVENPORT      LGT RAIN  61  56  83 E15       30.06F
IOWA CITY      HVY RAIN  60  58  92 E14G21    30.02F FOG
MT. PLEASANT * LGT RAIN  61  59  94 E13       29.98F
MUSCATINE *    CLOUDY    61  59  94 E12       30.02F
QUAD CITIES    CLOUDY    61  56  83 E10       30.05F
$$

IAZ062-063-075>077-085>089-095>099-241600-
   SOUTHEAST IOWA

CITY           SKY/WX    TMP DP  RH WIND       PRES   REMARKS
BURLINGTON     CLOUDY    64  59  83 SE10      29.99F
FAIRFIELD *    LGT RAIN  61  59  94 E13G18    29.97F
FORT MADISON * PTSUNNY   64  61  88 SE7       29.99F
KEOKUK *       PTSUNNY   66  59  77 SE13      29.97F
OSKALOOSA *    LGT RAIN  61  59  94 E15G21    29.95F
CENTERVILLE *  LGT RAIN  61  61 100 SE13      29.93F
OTTUMWA        LGT RAIN  62  60  93 E16G23    29.94F
WASHINGTON *   CLOUDY    61  59  94 E14       30.01S
$$

ABBREVIATIONS USED IN REMARKS
   TC - TEMPERATURES IN CELSIUS
  WCI - WIND CHILL INDEX
   HX - HEAT INDEX
  VSB - VISIBILITY
$$




USA.gov is the U.S. government's official web portal to all federal, state and local government web resources and services.